Time,TemperatureF,DewpointF,PressureIn,WindDirection,WindDirectionDegrees,WindSpeedMPH,WindSpeedGustMPH,Humidity,HourlyPrecipIn,Conditions,Clouds,dailyrainin,SoftwareType,DateUTC
2013-07-24 00:05:00,58.3,55.0,29.98,West,273,0.0,0.0,89,0.00,,,0.00,weatherlink.com 1.10,2013-07-24 05:05:00,
2013-07-24 00:20:00,58.0,55.0,29.98,West,273,0.0,0.0,89,0.00,,,0.00,weatherlink.com 1.10,2013-07-24 05:20:00,
2013-07-24 00:35:00,57.6,54.0,29.98,West,273,0.0,0.0,89,0.00,,,0.00,weatherlink.com 1.10,2013-07-24 05:35:00,
2013-07-24 00:50:00,57.8,55.0,29.99,West,272,0.0,0.0,89,0.00,,,0.00,weatherlink.com 1.10,2013-07-24 05:50:00,
2013-07-24 01:05:00,57.7,54.0,29.99,West,272,0.0,0.0,88,0.00,,,0.00,weatherlink.com 1.10,2013-07-24 06:05:00,
2013-07-24 01:20:00,57.4,54.0,29.99,West,273,0.0,0.0,88,0.00,,,0.00,weatherlink.com 1.10,2013-07-24 06:20:00,
2013-07-24 01:35:00,57.0,54.0,29.99,West,273,0.0,0.0,89,0.00,,,0.00,weatherlink.com 1.10,2013-07-24 06:35:00,
2013-07-24 01:50:00,56.7,54.0,29.99,West,273,0.0,0.0,89,0.00,,,0.00,weatherlink.com 1.10,2013-07-24 06:50:00,
2013-07-24 02:05:00,57.0,53.0,30.00,West,273,0.0,0.0,86,0.00,,,0.00,weatherlink.com 1.10,2013-07-24 07:05:00,
2013-07-24 02:20:00,56.7,52.0,30.00,West,273,0.0,0.0,85,0.00,,,0.00,weatherlink.com 1.10,2013-07-24 07:20:00,
2013-07-24 02:35:00,56.1,52.0,30.00,West,273,0.0,0.0,85,0.00,,,0.00,weatherlink.com 1.10,2013-07-24 07:35:00,
2013-07-24 02:50:00,55.7,52.0,30.00,West,273,0.0,0.0,87,0.00,,,0.00,weatherlink.com 1.10,2013-07-24 07:50:00,
2013-07-24 03:05:00,55.3,52.0,30.00,West,273,0.0,0.0,88,0.00,,,0.00,weatherlink.com 1.10,2013-07-24 08:05:00,
2013-07-24 03:20:00,55.1,52.0,30.00,West,272,0.0,0.0,89,0.00,,,0.00,weatherlink.com 1.10,2013-07-24 08:20:00,
2013-07-24 03:35:00,54.9,52.0,30.00,West,273,0.0,0.0,89,0.00,,,0.00,weatherlink.com 1.10,2013-07-24 08:35:00,
2013-07-24 03:50:00,54.7,52.0,30.00,West,273,0.0,0.0,90,0.00,,,0.00,weatherlink.com 1.10,2013-07-24 08:50:00,
2013-07-24 04:05:00,54.9,52.0,30.00,West,273,0.0,0.0,91,0.00,,,0.00,weatherlink.com 1.10,2013-07-24 09:05:00,
2013-07-24 04:20:00,54.9,52.0,30.00,West,273,0.0,0.0,91,0.00,,,0.00,weatherlink.com 1.10,2013-07-24 09:20:00,
2013-07-24 04:35:00,55.0,53.0,30.00,West,272,0.0,0.0,91,0.00,,,0.00,weatherlink.com 1.10,2013-07-24 09:35:00,
2013-07-24 04:50:00,55.2,53.0,30.00,West,273,0.0,0.0,92,0.00,,,0.00,weatherlink.com 1.10,2013-07-24 09:50:00,
2013-07-24 05:05:00,55.7,54.0,30.01,West,273,0.0,0.0,92,0.00,,,0.00,weatherlink.com 1.10,2013-07-24 10:05:00,
2013-07-24 05:20:00,56.0,54.0,30.01,West,273,0.0,0.0,91,0.00,,,0.00,weatherlink.com 1.10,2013-07-24 10:20:00,
2013-07-24 05:35:00,56.3,54.0,30.01,West,273,0.0,0.0,90,0.00,,,0.00,weatherlink.com 1.10,2013-07-24 10:35:00,
2013-07-24 05:51:00,56.5,53.0,30.02,West,273,0.0,0.0,89,0.00,,,0.00,weatherlink.com 1.10,2013-07-24 10:51:00,
2013-07-24 06:06:00,57.0,54.0,30.02,West,273,0.0,0.0,88,0.00,,,0.00,weatherlink.com 1.10,2013-07-24 11:06:00,
2013-07-24 06:21:00,57.6,54.0,30.02,West,273,0.0,0.0,86,0.00,,,0.00,weatherlink.com 1.10,2013-07-24 11:21:00,
2013-07-24 06:36:00,58.6,54.0,30.02,West,274,0.0,1.0,85,0.00,,,0.00,weatherlink.com 1.10,2013-07-24 11:36:00,
2013-07-24 06:51:00,59.6,54.0,30.02,West,274,0.0,0.0,83,0.00,,,0.00,weatherlink.com 1.10,2013-07-24 11:51:00,
2013-07-24 07:06:00,59.7,54.0,30.03,SW,229,0.0,1.0,82,0.00,,,0.00,weatherlink.com 1.10,2013-07-24 12:06:00,
2013-07-24 07:21:00,60.1,54.0,30.03,SW,229,0.0,0.0,81,0.00,,,0.00,weatherlink.com 1.10,2013-07-24 12:21:00,
2013-07-24 07:36:00,60.5,55.0,30.04,SW,229,0.0,0.0,82,0.00,,,0.00,weatherlink.com 1.10,2013-07-24 12:36:00,
2013-07-24 07:51:00,61.1,55.0,30.04,WNW,285,0.0,1.0,80,0.00,,,0.00,weatherlink.com 1.10,2013-07-24 12:51:00,
2013-07-24 08:06:00,62.0,55.0,30.03,ENE,77,0.0,1.0,77,0.00,,,0.00,weatherlink.com 1.10,2013-07-24 13:06:00,
2013-07-24 08:21:00,62.8,56.0,30.03,South,174,0.0,1.0,78,0.00,,,0.00,weatherlink.com 1.10,2013-07-24 13:21:00,
2013-07-24 08:36:00,63.5,56.0,30.04,ESE,121,0.0,0.0,76,0.00,,,0.00,weatherlink.com 1.10,2013-07-24 13:36:00,
2013-07-24 08:51:00,64.0,56.0,30.04,NE,53,0.0,1.0,75,0.00,,,0.00,weatherlink.com 1.10,2013-07-24 13:51:00,
2013-07-24 09:06:00,64.4,56.0,30.04,East,82,0.0,1.0,73,0.00,,,0.00,weatherlink.com 1.10,2013-07-24 14:06:00,
2013-07-24 09:21:00,64.5,56.0,30.05,WNW,288,0.0,3.0,73,0.00,,,0.00,weatherlink.com 1.10,2013-07-24 14:21:00,
2013-07-24 09:36:00,64.7,55.0,30.04,WSW,242,0.0,1.0,72,0.00,,,0.00,weatherlink.com 1.10,2013-07-24 14:36:00,
2013-07-24 09:51:00,65.0,56.0,30.05,WSW,242,0.0,1.0,73,0.00,,,0.00,weatherlink.com 1.10,2013-07-24 14:51:00,
2013-07-24 10:36:00,66.4,58.0,30.03,ENE,68,0.0,0.0,75,0.00,,,0.00,weatherlink.com 1.10,2013-07-24 15:36:00,
2013-07-24 10:51:00,67.5,57.0,30.03,North,11,0.0,2.0,68,0.00,,,0.00,weatherlink.com 1.10,2013-07-24 15:51:00,
2013-07-24 11:06:00,67.9,58.0,30.03,West,280,0.0,1.0,70,0.00,,,0.00,weatherlink.com 1.10,2013-07-24 16:06:00,
2013-07-24 11:21:00,68.7,59.0,30.03,SSW,207,0.0,2.0,70,0.00,,,0.00,weatherlink.com 1.10,2013-07-24 16:21:00,
2013-07-24 11:51:00,67.8,58.0,30.03,West,271,0.0,1.0,71,0.00,,,0.00,weatherlink.com 1.10,2013-07-24 16:51:00,
2013-07-24 12:06:00,68.1,59.0,30.03,West,271,0.0,0.0,72,0.00,,,0.00,weatherlink.com 1.10,2013-07-24 17:06:00,
2013-07-24 12:21:00,67.7,58.0,30.03,North,1,0.0,2.0,72,0.00,,,0.00,weatherlink.com 1.10,2013-07-24 17:21:00,
2013-07-24 12:36:00,67.2,59.0,30.03,North,3,0.0,1.0,75,0.00,,,0.00,weatherlink.com 1.10,2013-07-24 17:36:00,
2013-07-24 12:51:00,67.7,60.0,30.02,South,187,0.0,2.0,75,0.00,,,0.00,weatherlink.com 1.10,2013-07-24 17:51:00,
2013-07-24 13:21:00,72.8,62.0,30.01,West,277,0.0,5.0,69,0.00,,,0.00,weatherlink.com 1.10,2013-07-24 18:21:00,
2013-07-24 13:36:00,74.5,61.0,30.01,SE,141,0.0,4.0,62,0.00,,,0.00,weatherlink.com 1.10,2013-07-24 18:36:00,
2013-07-24 13:51:00,74.7,60.0,30.00,East,81,1.0,2.0,61,0.00,,,0.00,weatherlink.com 1.10,2013-07-24 18:51:00,
2013-07-24 14:06:00,76.0,61.0,29.99,South,176,0.0,3.0,61,0.00,,,0.00,weatherlink.com 1.10,2013-07-24 19:06:00,
2013-07-24 14:21:00,77.0,60.0,29.99,West,276,1.0,4.0,57,0.00,,,0.00,weatherlink.com 1.10,2013-07-24 19:21:00,
2013-07-24 14:36:00,77.3,59.0,29.99,NE,47,1.0,3.0,53,0.00,,,0.00,weatherlink.com 1.10,2013-07-24 19:36:00,
2013-07-24 14:51:00,78.2,61.0,29.99,WSW,250,0.0,2.0,56,0.00,,,0.00,weatherlink.com 1.10,2013-07-24 19:51:00,
2013-07-24 15:06:00,75.8,58.0,29.99,NE,53,0.0,3.0,54,0.00,,,0.00,weatherlink.com 1.10,2013-07-24 20:06:00,
2013-07-24 15:21:00,75.8,59.0,29.98,South,190,0.0,4.0,57,0.00,,,0.00,weatherlink.com 1.10,2013-07-24 20:21:00,
2013-07-24 15:36:00,77.0,58.0,29.98,SE,130,0.0,3.0,52,0.00,,,0.00,weatherlink.com 1.10,2013-07-24 20:36:00,
2013-07-24 15:51:00,76.6,59.0,29.97,East,93,0.0,2.0,54,0.00,,,0.00,weatherlink.com 1.10,2013-07-24 20:51:00,
2013-07-24 16:06:00,76.1,59.0,29.97,North,355,0.0,0.0,55,0.00,,,0.00,weatherlink.com 1.10,2013-07-24 21:06:00,
2013-07-24 16:21:00,74.8,59.0,29.97,NE,53,0.0,3.0,58,0.00,,,0.00,weatherlink.com 1.10,2013-07-24 21:21:00,
2013-07-24 16:36:00,73.9,59.0,29.96,ENE,72,0.0,3.0,60,0.00,,,0.00,weatherlink.com 1.10,2013-07-24 21:36:00,
2013-07-24 16:51:00,74.9,60.0,29.96,NE,49,0.0,2.0,60,0.00,,,0.00,weatherlink.com 1.10,2013-07-24 21:51:00,
2013-07-24 17:07:00,75.9,60.0,29.96,WSW,252,0.0,4.0,59,0.00,,,0.00,weatherlink.com 1.10,2013-07-24 22:07:00,
2013-07-24 17:21:00,75.5,60.0,29.95,ENE,68,0.0,1.0,59,0.00,,,0.00,weatherlink.com 1.10,2013-07-24 22:21:00,
2013-07-24 17:36:00,74.0,61.0,29.95,ENE,67,0.0,0.0,65,0.00,,,0.00,weatherlink.com 1.10,2013-07-24 22:36:00,
2013-07-24 17:52:00,73.2,61.0,29.95,ENE,67,0.0,0.0,65,0.00,,,0.00,weatherlink.com 1.10,2013-07-24 22:52:00,
2013-07-24 18:07:00,73.5,62.0,29.95,ENE,67,0.0,0.0,67,0.00,,,0.00,weatherlink.com 1.10,2013-07-24 23:07:00,
2013-07-24 18:22:00,74.9,61.0,29.95,ENE,67,0.0,0.0,63,0.00,,,0.00,weatherlink.com 1.10,2013-07-24 23:22:00,
2013-07-24 18:37:00,74.9,63.0,29.95,ENE,67,0.0,0.0,66,0.00,,,0.00,weatherlink.com 1.10,2013-07-24 23:37:00,
2013-07-24 18:52:00,74.3,62.0,29.94,ENE,67,1.0,1.0,65,0.00,,,0.00,weatherlink.com 1.10,2013-07-24 23:52:00,
2013-07-24 19:07:00,75.1,62.0,29.94,ENE,63,1.0,1.0,65,0.00,,,0.00,weatherlink.com 1.10,2013-07-25 00:07:00,
2013-07-24 19:22:00,75.3,62.0,29.94,SE,131,0.0,1.0,64,0.00,,,0.00,weatherlink.com 1.10,2013-07-25 00:22:00,
2013-07-24 19:37:00,74.4,61.0,29.94,ENE,68,0.0,2.0,63,0.00,,,0.00,weatherlink.com 1.10,2013-07-25 00:37:00,
2013-07-24 19:52:00,74.5,62.0,29.94,ENE,78,0.0,1.0,65,0.00,,,0.00,weatherlink.com 1.10,2013-07-25 00:52:00,
2013-07-24 20:07:00,72.9,62.0,29.94,ENE,70,0.0,0.0,68,0.00,,,0.00,weatherlink.com 1.10,2013-07-25 01:07:00,
2013-07-24 20:22:00,71.0,61.0,29.94,NE,50,0.0,1.0,70,0.00,,,0.00,weatherlink.com 1.10,2013-07-25 01:22:00,
2013-07-24 20:37:00,69.4,60.0,29.93,ESE,108,0.0,1.0,73,0.00,,,0.00,weatherlink.com 1.10,2013-07-25 01:37:00,
2013-07-24 20:52:00,68.2,60.0,29.93,SW,214,0.0,1.0,75,0.00,,,0.00,weatherlink.com 1.10,2013-07-25 01:52:00,
2013-07-24 21:07:00,67.2,60.0,29.93,SE,131,0.0,1.0,77,0.00,,,0.00,weatherlink.com 1.10,2013-07-25 02:07:00,
2013-07-24 21:22:00,66.1,59.0,29.93,SE,131,0.0,0.0,79,0.00,,,0.00,weatherlink.com 1.10,2013-07-25 02:22:00,
2013-07-24 21:37:00,64.9,59.0,29.94,SE,131,0.0,0.0,82,0.00,,,0.00,weatherlink.com 1.10,2013-07-25 02:37:00,
2013-07-24 21:52:00,63.9,59.0,29.94,SE,131,0.0,0.0,84,0.00,,,0.00,weatherlink.com 1.10,2013-07-25 02:52:00,
2013-07-24 22:37:00,61.9,59.0,29.95,SE,131,0.0,0.0,90,0.00,,,0.00,weatherlink.com 1.10,2013-07-25 03:37:00,
2013-07-24 22:52:00,61.8,59.0,29.95,SE,131,0.0,0.0,91,0.00,,,0.00,weatherlink.com 1.10,2013-07-25 03:52:00,
2013-07-24 23:07:00,61.8,60.0,29.95,SE,131,0.0,0.0,92,0.00,,,0.00,weatherlink.com 1.10,2013-07-25 04:07:00,
2013-07-24 23:22:00,61.6,59.0,29.94,SE,131,0.0,0.0,92,0.00,,,0.00,weatherlink.com 1.10,2013-07-25 04:22:00,
2013-07-24 23:37:00,61.5,59.0,29.94,SE,131,0.0,0.0,92,0.00,,,0.00,weatherlink.com 1.10,2013-07-25 04:37:00,
2013-07-24 23:52:00,61.7,60.0,29.95,SE,131,0.0,0.0,93,0.00,,,0.00,weatherlink.com 1.10,2013-07-25 04:52:00,